• In Hungary
  • List of Countries
  • For 7 days
  • Water Temperature
  • Satellite Maps
  • Weather Map
  • News
  • Weather Widgets
  • user-avatar
    Login

    Hourly Weather Butyrki

    Today, 24 June, Sunday

    Time Temperature Precipitation Wind Pressure Humidity
    00:00 +20°C° 0 mm 2 mps 746 mmHg 62%
    01:00 +20°C° 0 mm 2 mps 746 mmHg 64%
    02:00 +19°C° 0 mm 2 mps 746 mmHg 65%
    03:00 +19°C° 0 mm 2 mps 746 mmHg 67%
    04:00 +20°C° 0 mm 2 mps 746 mmHg 68%
    05:00 +20°C° 0 mm 2 mps 746 mmHg 68%
    06:00 +21°C° 0 mm 3 mps 746 mmHg 69%
    07:00 +22°C° 0 mm 3 mps 746 mmHg 65%
    08:00 +25°C° 0 mm 4 mps 746 mmHg 61%
    09:00 +27°C° 0 mm 4 mps 746 mmHg 56%
    10:00 +28°C° 0 mm 4 mps 746 mmHg 53%
    11:00 +29°C° 0 mm 5 mps 746 mmHg 49%
    12:00 +30°C° 0 mm 5 mps 746 mmHg 45%
    13:00 +30°C° 0 mm 5 mps 746 mmHg 44%
    14:00 +30°C° 0 mm 4 mps 746 mmHg 43%
    15:00 +32°C° 0 mm 4 mps 746 mmHg 42%
    16:00 +30°C° 0 mm 4 mps 746 mmHg 46%
    17:00 +29°C° 0 mm 3 mps 745 mmHg 50%
    18:00 +29°C° 0 mm 3 mps 745 mmHg 54%
    19:00 +27°C° 0 mm 3 mps 745 mmHg 54%
    20:00 +26°C° 0 mm 3 mps 745 mmHg 54%
    21:00 +24°C° 0 mm 3 mps 745 mmHg 54%
    22:00 +23°C° 0 mm 4 mps 746 mmHg 53%
    23:00 +22°C° 0 mm 4 mps 746 mmHg 53%

    Tomorrow, 25 June, Monday

    Time Temperature Precipitation Wind Pressure Humidity
    00:00 +21°C° 0 mm 4 mps 746 mmHg 52%
    01:00 +21°C° 0 mm 3 mps 746 mmHg 55%
    02:00 +20°C° 0 mm 3 mps 746 mmHg 57%
    03:00 +19°C° 0 mm 3 mps 746 mmHg 60%
    04:00 +20°C° 0 mm 3 mps 747 mmHg 64%
    05:00 +21°C° 0 mm 2 mps 747 mmHg 69%
    06:00 +21°C° 0 mm 2 mps 747 mmHg 73%
    07:00 +24°C° 0 mm 2 mps 747 mmHg 71%
    08:00 +25°C° 0 mm 2 mps 748 mmHg 68%
    09:00 +27°C° 0 mm 2 mps 748 mmHg 65%
    10:00 +28°C° 0 mm 2 mps 748 mmHg 61%
    11:00 +29°C° 0 mm 2 mps 748 mmHg 58%
    12:00 +30°C° 0 mm 2 mps 748 mmHg 54%
    13:00 +30°C° 0 mm 2 mps 748 mmHg 53%
    14:00 +30°C° 0 mm 2 mps 748 mmHg 52%
    15:00 +31°C° 0 mm 2 mps 748 mmHg 51%
    16:00 +30°C° 0.3 mm 3 mps 748 mmHg 57%
    17:00 +29°C° 0.3 mm 3 mps 749 mmHg 63%
    18:00 +28°C° 0.3 mm 4 mps 749 mmHg 69%
    19:00 +26°C° 0.1 mm 4 mps 749 mmHg 76%
    20:00 +24°C° 0.1 mm 3 mps 749 mmHg 84%
    21:00 +21°C° 0.1 mm 3 mps 749 mmHg 91%
    22:00 +21°C° 0.5 mm 3 mps 749 mmHg 92%
    23:00 +20°C° 0.5 mm 3 mps 750 mmHg 94%

    Day after tomorrow, 26 June, Tuesday

    Time Temperature Precipitation Wind Pressure Humidity
    00:00 +19°C° 0.5 mm 3 mps 750 mmHg 95%
    01:00 +19°C° 0.1 mm 3 mps 750 mmHg 95%
    02:00 +19°C° 0.1 mm 3 mps 750 mmHg 95%
    03:00 +18°C° 0.1 mm 3 mps 750 mmHg 95%
    04:00 +19°C° 0 mm 3 mps 750 mmHg 94%
    05:00 +20°C° 0 mm 3 mps 750 mmHg 92%
    06:00 +20°C° 0 mm 3 mps 750 mmHg 90%
    07:00 +22°C° 0 mm 3 mps 750 mmHg 82%
    08:00 +25°C° 0 mm 3 mps 750 mmHg 75%
    09:00 +27°C° 0 mm 3 mps 750 mmHg 68%
    10:00 +29°C° 0 mm 3 mps 750 mmHg 61%
    11:00 +30°C° 0 mm 2 mps 750 mmHg 55%
    12:00 +32°C° 0 mm 2 mps 750 mmHg 49%
    13:00 +32°C° 0 mm 2 mps 750 mmHg 46%
    14:00 +34°C° 0 mm 2 mps 749 mmHg 43%
    15:00 +34°C° 0 mm 2 mps 749 mmHg 41%
    16:00 +34°C° 0 mm 2 mps 749 mmHg 45%
    17:00 +32°C° 0 mm 2 mps 749 mmHg 49%
    18:00 +32°C° 0 mm 2 mps 749 mmHg 53%
    19:00 +30°C° 0 mm 3 mps 749 mmHg 57%
    20:00 +28°C° 0 mm 3 mps 749 mmHg 61%
    21:00 +26°C° 0 mm 3 mps 750 mmHg 65%
    22:00 +25°C° 0 mm 3 mps 749 mmHg 67%
    23:00 +25°C° 0 mm 3 mps 749 mmHg 69%

    27 June, Wednesday

    Time Temperature Precipitation Wind Pressure Humidity
    00:00 +24°C° 0 mm 2 mps 749 mmHg 70%
    01:00 +24°C° 0 mm 2 mps 749 mmHg 72%
    02:00 +22°C° 0 mm 3 mps 749 mmHg 73%
    03:00 +22°C° 0 mm 3 mps 749 mmHg 75%
    04:00 +22°C° 0 mm 3 mps 750 mmHg 76%
    05:00 +24°C° 0 mm 3 mps 750 mmHg 77%
    06:00 +23°C° 0 mm 4 mps 750 mmHg 78%
    07:00 +26°C° 0.7 mm 3 mps 750 mmHg 75%
    08:00 +27°C° 0.7 mm 3 mps 750 mmHg 72%
    09:00 +29°C° 0.7 mm 3 mps 750 mmHg 69%
    10:00 +29°C° 0.6 mm 3 mps 750 mmHg 65%
    11:00 +30°C° 0.6 mm 3 mps 750 mmHg 61%
    12:00 +31°C° 0.6 mm 3 mps 750 mmHg 57%
    13:00 +32°C° 0.4 mm 4 mps 750 mmHg 58%
    14:00 +32°C° 0.4 mm 4 mps 750 mmHg 59%
    15:00 +32°C° 0.4 mm 4 mps 750 mmHg 59%
    16:00 +30°C° 0.3 mm 4 mps 749 mmHg 63%
    17:00 +30°C° 0.3 mm 3 mps 749 mmHg 66%
    18:00 +29°C° 0.3 mm 3 mps 749 mmHg 70%
    19:00 +28°C° 0.1 mm 3 mps 749 mmHg 74%
    20:00 +27°C° 0.1 mm 3 mps 749 mmHg 78%
    21:00 +25°C° 0.1 mm 3 mps 749 mmHg 81%
    22:00 +25°C° 0.1 mm 3 mps 749 mmHg 83%
    23:00 +24°C° 0.1 mm 3 mps 750 mmHg 86%

    28 June, Thursday

    Time Temperature Precipitation Wind Pressure Humidity
    00:00 +24°C° 0.1 mm 3 mps 750 mmHg 88%
    01:00 +22°C° 0.3 mm 4 mps 750 mmHg 89%
    02:00 +22°C° 0.3 mm 4 mps 750 mmHg 89%
    03:00 +21°C° 0.3 mm 4 mps 750 mmHg 90%
    04:00 +22°C° 0.1 mm 4 mps 750 mmHg 88%
    05:00 +23°C° 0.1 mm 4 mps 750 mmHg 86%
    06:00 +23°C° 0.1 mm 4 mps 750 mmHg 84%
    07:00 +26°C° 0.2 mm 4 mps 750 mmHg 80%
    08:00 +27°C° 0.2 mm 4 mps 750 mmHg 75%
    09:00 +29°C° 0.2 mm 4 mps 750 mmHg 71%
    10:00 +30°C° 0.5 mm 4 mps 750 mmHg 65%
    11:00 +32°C° 0.5 mm 4 mps 750 mmHg 60%
    12:00 +33°C° 0.5 mm 3 mps 750 mmHg 55%
    13:00 +34°C° 0 mm 3 mps 750 mmHg 53%
    14:00 +34°C° 0 mm 3 mps 750 mmHg 52%
    15:00 +34°C° 0 mm 3 mps 750 mmHg 50%
    16:00 +34°C° 0 mm 3 mps 750 mmHg 54%
    17:00 +33°C° 0 mm 3 mps 750 mmHg 57%
    18:00 +33°C° 0 mm 3 mps 750 mmHg 61%
    19:00 +30°C° 0 mm 3 mps 750 mmHg 64%
    20:00 +28°C° 0 mm 3 mps 750 mmHg 67%
    21:00 +26°C° 0 mm 3 mps 750 mmHg 70%
    22:00 +26°C° 0 mm 3 mps 750 mmHg 72%
    23:00 +25°C° 0 mm 3 mps 750 mmHg 75%

    29 June, Friday

    Time Temperature Precipitation Wind Pressure Humidity
    00:00 +24°C° 0 mm 3 mps 750 mmHg 77%
    01:00 +24°C° 0 mm 3 mps 750 mmHg 80%
    02:00 +22°C° 0 mm 4 mps 750 mmHg 83%
    03:00 +22°C° 0 mm 4 mps 750 mmHg 86%
    04:00 +22°C° 0 mm 4 mps 750 mmHg 85%
    05:00 +23°C° 0 mm 4 mps 750 mmHg 83%
    06:00 +23°C° 0 mm 5 mps 750 mmHg 81%
    07:00 +25°C° 0 mm 5 mps 750 mmHg 76%
    08:00 +27°C° 0 mm 5 mps 750 mmHg 71%
    09:00 +28°C° 0 mm 5 mps 750 mmHg 66%
    10:00 +29°C° 0 mm 5 mps 750 mmHg 63%
    11:00 +30°C° 0 mm 5 mps 750 mmHg 60%
    12:00 +32°C° 0 mm 5 mps 749 mmHg 57%
    13:00 +32°C° 0 mm 5 mps 749 mmHg 55%
    14:00 +32°C° 0 mm 5 mps 749 mmHg 54%
    15:00 +33°C° 0 mm 5 mps 748 mmHg 53%
    16:00 +32°C° 0 mm 5 mps 748 mmHg 55%
    17:00 +30°C° 0 mm 4 mps 748 mmHg 58%
    18:00 +30°C° 0 mm 4 mps 748 mmHg 61%
    19:00 +28°C° 0 mm 4 mps 748 mmHg 62%
    20:00 +27°C° 0 mm 4 mps 748 mmHg 63%
    21:00 +25°C° 0 mm 4 mps 748 mmHg 64%
    22:00 +23°C° 0 mm 4 mps 748 mmHg 63%
    23:00 +23°C° 0 mm 4 mps 748 mmHg 62%
    Show more